Tracking 25689 objects as of 7-Jul-2022
HD Live streaming from Space Station
objects crossing your sky now

FENGYUN 1C DEB

Track FENGYUN 1C DEB now!
10-day predictions


NORAD ID: 32355
Int'l Code: 1999-025CYY
Perigee: 690.0 km
Apogee: 885.4 km
Inclination: 100.4 °
Period: 100.5 minutes
Semi major axis: 7158 km
RCS: 0.0091 m2 (small)
Launch date: May 10, 1999
Source: People's Republic of China (PRC)
Launch site: Taiyaun Space Center, China (TSC)

Note: This is SATELLITE DEBRIS
aabbcc
Your satellite tracking list
Your tracking list is empty




NASA's NSSDC Master Catalog

Two Line Element Set (TLE):
1 32355U 99025CYY 22187.74880851  .00003234  00000-0  10777-2 0  9990
2 32355 100.3872 151.3306 0136462 101.7936  17.3150 14.33344691467045
Source of the keplerian elements: AFSPC